[[{"header":{"parameterUnit":"m.s-1","parameterCategory":1,"la1":30.2991,"la2":30.254,"lo1":-89.0895,"lo2":-89.0444,"dy":0.0017,"dx":0.0017,"nx":28,"ny":28,"refTime":"2025-11-05T09:00:00:Z","depth":0,"parameterNumber":2,"parameterNumberName":"U-component_of_WINDS"},"data":[0,0,0,0,0,0,0,0,0,0,0,0,0,0,0,0,0,0,0,0,0,0,0,0,0,0,0,0,0,0,0,0,0,0,0,0,0,0,0,0,0,0,0,0,0,0,0,0,0,0,0,0,0,0,0,0,0,0,-0.4815,-0.4815,0,-0.4884,-0.4885,-0.4886,-0.4953,-0.4954,-0.4955,-0.4955,-0.5028,-0.5029,-0.503,0,0,0,0,0,0,0,0,0,0,0,0,0,-0.474,-0.4741,-0.4815,-0.4816,-0.4816,-0.4884,-0.4885,-0.4886,-0.4953,-0.4954,-0.4955,-0.4956,-0.5027,-0.5029,-0.503,0,0,0,0,0,0,0,0,0,0,0,0,0,-0.4787,-0.4742,-0.4815,-0.4858,-0.4862,-0.4884,-0.4885,-0.4886,-0.4952,-0.4954,-0.4955,-0.4956,-0.5027,-0.5029,-0.503,-0.5015,0,0,-0.5035,-0.5036,0,0,0,0,0,0,0,0,-0.4785,-0.479,-0.4851,-0.4855,-0.486,-0.4911,-0.4885,-0.4929,-0.4952,-0.4918,-0.4955,-0.4957,-0.4988,-0.4993,-0.5003,-0.5018,-0.5021,-0.5036,-0.5037,-0.5037,-0.5038,0,0,0,0,0,0,0,-0.4781,-0.4788,-0.4842,-0.4851,-0.4857,-0.4874,-0.4882,-0.4894,-0.4945,-0.4921,-0.4926,-0.4934,-0.4991,-0.5001,-0.5005,-0.5022,-0.5036,-0.5037,-0.5038,-0.5039,-0.5027,-0.5026,0,0,0,0,0,0,-0.4771,-0.4784,-0.484,-0.4844,-0.4825,-0.4874,-0.4883,-0.4893,-0.4945,-0.4954,-0.4932,-0.4937,-0.4998,-0.5003,-0.5008,-0.4992,-0.5037,-0.5039,-0.504,-0.5028,-0.5027,-0.5025,0,0,0,0,0,0,-0.477,-0.4776,-0.4837,-0.4816,-0.4825,-0.4874,-0.4885,-0.4894,-0.4905,-0.4954,-0.4963,-0.4934,-0.4999,-0.5006,-0.5012,-0.4996,-0.504,-0.5041,-0.503,-0.5028,-0.5026,-0.4961,0,0,0,0,0,0,-0.4767,-0.4775,-0.4769,-0.4815,-0.4826,-0.484,-0.4884,-0.4895,-0.4907,-0.4913,-0.4957,-0.4966,-0.5001,-0.5009,-0.5014,-0.4999,-0.5043,-0.5031,-0.5029,-0.5026,-0.4965,-0.4957,-0.495,0,0,0,0,0,-0.4764,-0.4749,-0.4769,-0.4775,-0.482,-0.4839,-0.4845,-0.4885,-0.4906,-0.4901,-0.4932,-0.4964,-0.4997,-0.5009,-0.5015,-0.5,-0.5033,-0.503,-0.5027,-0.4968,-0.4959,-0.4951,0,0,0,0,0,0,-0.4701,-0.4756,-0.4778,-0.4777,-0.4803,-0.485,-0.4845,-0.4874,-0.4894,-0.4899,-0.4948,-0.4957,-0.4958,-0.498,-0.4993,-0.4988,-0.5019,-0.5017,-0.4973,-0.4964,-0.4957,-0.4951,-0.5044,0,0,0,0,0,-0.4686,-0.4697,-0.4745,-0.4739,-0.4751,-0.4795,-0.4805,-0.4833,-0.4862,-0.4873,-0.4905,-0.4932,-0.4948,-0.4957,-0.4975,-0.4969,-0.4979,-0.4961,-0.4954,-0.4948,-0.4945,-0.4942,-0.4935,-0.5015,-0.5015,-0.5015,0,0,-0.4657,-0.4689,-0.4692,-0.4727,-0.475,-0.4759,-0.4804,-0.4813,-0.482,-0.4875,-0.4882,-0.4906,-0.4939,-0.4938,-0.494,-0.4957,-0.4925,-0.4944,-0.4939,-0.494,-0.4938,-0.4931,-0.4924,-0.5013,-0.5014,-0.5014,0,0,-0.4609,-0.4634,-0.4631,-0.4653,-0.4687,-0.4717,-0.4716,-0.4759,-0.4776,-0.4785,-0.4825,-0.4835,-0.4863,-0.4884,-0.4898,-0.4856,-0.4887,-0.4861,-0.4823,-0.4819,-0.4813,-0.4807,-0.4791,-0.4785,-0.4858,-0.4858,-0.4858,0,-0.4569,-0.4584,-0.4627,-0.4632,-0.4646,-0.4695,-0.4692,-0.4712,-0.475,-0.4758,-0.4777,-0.4811,-0.4837,-0.4841,-0.483,-0.4841,-0.4841,-0.4856,-0.481,-0.4805,-0.4801,-0.4786,-0.478,-0.4855,-0.4855,-0.4855,-0.4856,0,-0.4532,-0.4542,-0.4536,-0.457,-0.4584,-0.4585,-0.4627,-0.4636,-0.4662,-0.469,-0.4697,-0.473,-0.4754,-0.4757,-0.4785,-0.4765,-0.4775,-0.4801,-0.4834,-0.4789,-0.4775,-0.477,-0.485,-0.4851,-0.4852,-0.4853,0,0,-0.4446,-0.4503,-0.45,-0.4515,-0.4556,-0.4564,-0.4568,-0.4591,-0.4596,-0.4621,-0.4624,-0.4645,-0.4669,-0.4686,-0.4716,-0.4712,-0.4675,-0.4739,-0.4741,-0.4725,-0.4655,-0.4634,-0.4626,-0.4696,-0.4695,-0.4694,-0.4651,0,-0.4404,-0.4412,-0.445,-0.4447,-0.4456,-0.4502,-0.4505,-0.453,-0.4555,-0.4567,-0.4596,-0.4609,-0.4641,-0.4651,-0.465,-0.468,-0.4662,-0.4684,-0.4699,-0.4699,-0.4688,-0.462,-0.4598,-0.4556,-0.4647,-0.4646,-0.4645,0,-0.4356,-0.4375,-0.4373,-0.4412,-0.4417,-0.4419,-0.4442,-0.4453,-0.4482,-0.4501,-0.4518,-0.4551,-0.4556,-0.4587,-0.4595,-0.4609,-0.4618,-0.4634,-0.4633,-0.4636,-0.4669,-0.4619,-0.4544,-0.4537,-0.4638,-0.4638,-0.4639,0,-0.4291,-0.4318,-0.4319,-0.4331,-0.4377,-0.4377,-0.4396,-0.4426,-0.4437,-0.4458,-0.4465,-0.4486,-0.4498,-0.4514,-0.4551,-0.457,-0.4555,-0.4589,-0.457,-0.4569,-0.4564,-0.4564,-0.4488,-0.4571,-0.4571,-0.4571,-0.4571,0,-0.424,-0.4236,-0.4291,-0.4292,-0.4289,-0.4332,-0.4328,-0.4351,-0.4378,-0.4384,-0.4426,-0.443,-0.448,-0.4491,-0.452,-0.4522,-0.4527,-0.4542,-0.455,-0.4538,-0.4536,-0.4544,-0.4547,-0.457,-0.457,-0.457,-0.457,0,-0.4168,-0.4204,-0.4209,-0.4251,-0.4261,-0.4257,-0.4293,-0.4296,-0.4323,-0.433,-0.4334,-0.4378,-0.4392,-0.4431,-0.4456,-0.4476,-0.4469,-0.4484,-0.4459,-0.4463,-0.4442,-0.4443,-0.4368,-0.4359,-0.4448,-0.4447,-0.4447,0,-0.4132,-0.413,-0.4171,-0.4178,-0.4195,-0.4205,-0.4216,-0.4258,-0.4268,-0.43,-0.4298,-0.4315,-0.4332,-0.4352,-0.4386,-0.4405,-0.4421,-0.4393,-0.4424,-0.4411,-0.4419,-0.4418,-0.4417,-0.4386,-0.4385,-0.4384,-0.4383,0,-0.4064,-0.4082,-0.4095,-0.4115,-0.4126,-0.4144,-0.4164,-0.4167,-0.4215,-0.4223,-0.4238,-0.425,-0.4275,-0.4291,-0.4315,-0.4335,-0.4366,-0.4373,-0.4369,-0.4356,-0.4341,-0.4348,-0.4439,-0.4374,-0.4375,-0.4376,-0.4376,-0.4377,-0.4008,-0.4008,-0.4036,-0.405,-0.4069,-0.4087,-0.409,-0.4118,-0.413,-0.4153,-0.4177,-0.4189,-0.4217,-0.4252,-0.4269,-0.4279,-0.4296,-0.4291,-0.4289,-0.4287,-0.4281,-0.434,-0.4284,-0.4284,-0.4284,-0.4285,-0.4285,0,-0.3942,-0.3962,-0.3974,-0.4,-0.401,-0.4038,-0.4061,-0.4068,-0.4077,-0.41,-0.4115,-0.4131,-0.4147,-0.4181,-0.42,-0.4201,-0.4216,-0.4205,-0.4205,-0.4208,-0.4266,-0.4266,-0.4192,-0.4192,-0.4192,-0.4192,-0.4192,-0.4192,-0.3908,-0.3909,-0.3929,-0.394,-0.396,-0.3971,-0.3982,-0.3998,-0.4016,-0.4032,-0.4044,-0.4067,-0.4094,-0.4115,-0.4131,-0.414,-0.4145,-0.4129,-0.4143,-0.4196,-0.4205,-0.4213,-0.4214,-0.413,-0.413,-0.4085,-0.4084,-0.4084]},{"header":{"parameterUnit":"m.s-1","parameterCategory":1,"la1":30.2991,"la2":30.254,"lo1":-89.0895,"lo2":-89.0444,"dy":0.0017,"dx":0.0017,"nx":28,"ny":28,"refTime":"2025-11-05T09:00:00:Z","depth":0,"parameterNumber":3,"parameterNumberName":"V-component_of_WINDS"},"data":[0,0,0,0,0,0,0,0,0,0,0,0,0,0,0,0,0,0,0,0,0,0,0,0,0,0,0,0,0,0,0,0,0,0,0,0,0,0,0,0,0,0,0,0,0,0,0,0,0,0,0,0,0,0,0,0,0,0,3.4214,3.4217,0,3.4447,3.445,3.4453,3.4515,3.4513,3.4512,3.4511,3.4747,3.4755,3.4762,0,0,0,0,0,0,0,0,0,0,0,0,0,3.382,3.3827,3.4214,3.4217,3.422,3.4447,3.445,3.4453,3.4515,3.4513,3.4512,3.451,3.4745,3.4754,3.4763,0,0,0,0,0,0,0,0,0,0,0,0,0,3.4016,3.383,3.4214,3.4278,3.4286,3.4446,3.445,3.4454,3.4515,3.4513,3.4511,3.4509,3.4742,3.4753,3.4764,3.4876,0,0,3.4799,3.4804,0,0,0,0,0,0,0,0,3.4005,3.4031,3.4266,3.4274,3.4283,3.445,3.4398,3.4596,3.4516,3.4428,3.4511,3.4508,3.465,3.4669,3.4717,3.4888,3.4898,3.48,3.4807,3.4812,3.4815,0,0,0,0,0,0,0,3.3991,3.4021,3.4306,3.4269,3.428,3.4295,3.432,3.4436,3.4548,3.4436,3.4441,3.4468,3.4654,3.4706,3.4723,3.4901,3.48,3.481,3.4817,3.4821,3.5176,3.5179,0,0,0,0,0,0,3.3967,3.4009,3.4299,3.4313,3.4136,3.4304,3.4332,3.4399,3.4547,3.4568,3.4469,3.447,3.4688,3.471,3.4732,3.4874,3.4812,3.4823,3.4829,3.5174,3.5177,3.518,0,0,0,0,0,0,3.3958,3.3992,3.429,3.4163,3.4202,3.4313,3.4387,3.4404,3.4456,3.4572,3.4592,3.4502,3.4687,3.4716,3.484,3.4883,3.4828,3.4838,3.5171,3.5175,3.5178,3.5159,0,0,0,0,0,0,3.3947,3.3989,3.4033,3.4163,3.4208,3.4395,3.4389,3.441,3.4476,3.4479,3.4608,3.4627,3.4687,3.4823,3.4852,3.4898,3.4847,3.5167,3.5172,3.5177,3.5156,3.5161,3.5166,0,0,0,0,0,3.3932,3.4018,3.4035,3.407,3.4266,3.4397,3.4423,3.4491,3.4479,3.4524,3.4599,3.4623,3.4873,3.4835,3.4868,3.4918,3.5165,3.5171,3.5177,3.5154,3.516,3.5166,0,0,0,0,0,0,3.3889,3.4036,3.4057,3.4187,3.4279,3.4407,3.4467,3.4496,3.4593,3.4592,3.4671,3.47,3.4819,3.4881,3.4836,3.5035,3.5019,3.5032,3.4991,3.4998,3.5003,3.4986,3.4856,0,0,0,0,0,3.3894,3.3989,3.4112,3.4215,3.426,3.4355,3.4415,3.4459,3.4558,3.4597,3.4681,3.4775,3.4876,3.494,3.5038,3.5164,3.5194,3.5215,3.522,3.5223,3.5234,3.5306,3.5318,3.5199,3.5199,3.5198,0,0,3.3907,3.3999,3.4054,3.4208,3.4285,3.4382,3.4388,3.4489,3.4561,3.4613,3.4736,3.4801,3.4911,3.5037,3.5097,3.5093,3.5273,3.5231,3.5233,3.5242,3.5314,3.5325,3.5335,3.5203,3.5202,3.5201,0,0,3.3979,3.4057,3.4153,3.4229,3.4346,3.4409,3.4431,3.4555,3.4601,3.4726,3.4767,3.4853,3.5023,3.5101,3.5162,3.5263,3.529,3.5293,3.5319,3.5389,3.5398,3.5407,3.5445,3.5457,3.5302,3.5302,3.5302,0,3.398,3.4127,3.4197,3.4298,3.4365,3.4415,3.4512,3.4583,3.4725,3.477,3.4763,3.4978,3.5056,3.5202,3.5226,3.5274,3.5303,3.5279,3.5391,3.5401,3.541,3.5447,3.546,3.5302,3.5302,3.5302,3.5302,0,3.4123,3.4224,3.4287,3.4424,3.4498,3.4595,3.468,3.4746,3.4783,3.4846,3.4973,3.5068,3.5188,3.5225,3.5262,3.5376,3.537,3.5376,3.5362,3.542,3.5456,3.547,3.5302,3.5302,3.5302,3.5302,0,0,3.4176,3.435,3.4372,3.4436,3.4567,3.4647,3.4746,3.4863,3.4919,3.5015,3.5101,3.5243,3.525,3.532,3.5366,3.5427,3.5502,3.5426,3.543,3.5438,3.5635,3.5631,3.5647,3.552,3.5523,3.5525,3.5627,0,3.4266,3.4447,3.4513,3.4662,3.4757,3.4806,3.4893,3.4983,3.5044,3.5133,3.52,3.5301,3.5301,3.5344,3.5406,3.548,3.5543,3.5473,3.5601,3.5605,3.5574,3.5665,3.5662,3.5753,3.5641,3.5643,3.5645,0,3.4396,3.4495,3.4653,3.4774,3.4816,3.4893,3.5006,3.509,3.5192,3.5233,3.531,3.5353,3.5458,3.5436,3.5584,3.5535,3.559,3.5634,3.564,3.5656,3.563,3.5685,3.5784,3.5798,3.5667,3.5666,3.5664,0,3.4421,3.4593,3.471,3.4762,3.4905,3.4959,3.502,3.5121,3.5187,3.5285,3.5329,3.5438,3.5497,3.558,3.565,3.5628,3.5792,3.5775,3.5829,3.5827,3.5863,3.586,3.5973,3.5895,3.5895,3.5895,3.5894,0,3.4516,3.4612,3.4724,3.4796,3.4904,3.4978,3.5083,3.5148,3.5237,3.5323,3.537,3.5449,3.5536,3.5627,3.5682,3.5796,3.5822,3.5858,3.5872,3.5855,3.5851,3.5894,3.5891,3.5898,3.5898,3.5897,3.5896,0,3.4563,3.4642,3.4774,3.4898,3.4932,3.5006,3.5113,3.5184,3.5247,3.5355,3.5384,3.5483,3.5592,3.5669,3.5809,3.5846,3.597,3.5982,3.5935,3.5943,3.5993,3.5987,3.6139,3.6164,3.6067,3.6068,3.6068,0,3.462,3.4695,3.4827,3.4889,3.4951,3.5048,3.5116,3.5191,3.526,3.5383,3.544,3.5552,3.5646,3.5817,3.5901,3.6009,3.6025,3.6071,3.6042,3.6023,3.6028,3.6024,3.6032,3.6076,3.6077,3.6077,3.6078,0,3.4713,3.4748,3.4845,3.4955,3.5035,3.5125,3.5216,3.5263,3.5354,3.5429,3.5541,3.5614,3.5757,3.5868,3.5983,3.6047,3.6078,3.6086,3.6104,3.6089,3.606,3.6078,3.5949,3.6083,3.6082,3.6082,3.6081,3.6081,3.4769,3.4838,3.4942,3.5048,3.5124,3.5208,3.5282,3.5354,3.5449,3.5572,3.561,3.5726,3.5827,3.5985,3.605,3.6142,3.614,3.6166,3.6173,3.6179,3.6179,3.6043,3.6163,3.6163,3.6163,3.6163,3.6163,0,3.4866,3.4935,3.5032,3.5158,3.5241,3.5262,3.5364,3.5432,3.5534,3.5626,3.5717,3.5846,3.5954,3.6046,3.6157,3.6213,3.6231,3.624,3.6238,3.6253,3.6174,3.6148,3.6225,3.6225,3.6225,3.6225,3.6225,3.6225,3.4926,3.5045,3.5092,3.5248,3.5317,3.5432,3.5488,3.5566,3.5639,3.5781,3.5872,3.5931,3.6023,3.6141,3.6241,3.6265,3.6305,3.6312,3.6339,3.6265,3.6258,3.6251,3.6227,3.6319,3.6319,3.6411,3.6412,3.6412]}]]